This demonstration page uses our WeatherBlox Daily Observations layout. Learn more.

Left ArrowRight Arrow

Hourly Observations for November 29, 2015

Temp ( °F °C ) Dew Point ( °F °C ) Humidity (%) Winds ( mph kmh ) Pressure ( in mb ) Visibility ( mi km ) Precip ( " mm )
12:51 am 00:51 Clear 38 3.3 30 -1.1 73 73 E 3 6 29.99 1016 10 16.0934 N/A
2:51 am 02:51 Clear 37 2.8 30 -1.1 76 76 SSE 7 11 29.97 1015 10 16.0934 N/A
3:51 am 03:51 Clear 34 1.1 30 -1.1 85 85 NNW 5 7 29.98 1015 10 16.0934 N/A
4:51 am 04:51 Clear 34 1.1 30 -1.1 85 85 ESE 5 7 29.98 1015 10 16.0934 N/A
5:51 am 05:51 Clear 34 1.1 32 undefined 92 92 ESE 6 9 29.99 1016 10 16.0934 N/A
6:51 am 06:51 Clear 34 1.1 31 -0.6 89 89 ESE 3 6 30.01 1016 10 16.0934 N/A
7:31 am 07:31 Mostly Cloudy 36 2.2 32 undefined 86 86 NW 6 9 30.18 1022 10 16.0934 N/A
7:51 am 07:51 Cloudy 37 2.8 33 0.6 86 86 N N/A 30.06 1018 10 16.0934 N/A
8:51 am 08:51 Mostly Cloudy 40 4.4 34 1.1 79 79 N N/A 30.07 1018 10 16.0934 N/A
9:08 am 09:08 Partly Cloudy 41 5 34 1.1 76 76 VRB 3 6 30.15 1021 10 16.0934 N/A
9:51 am 09:51 Sunny 45 7.2 36 2.2 71 71 SE 5 7 30.05 1018 10 16.0934 N/A
10:51 am 10:51 Sunny 52 11.1 40 4.4 64 64 ESE 6 9 30.01 1016 10 16.0934 N/A
11:51 am 11:51 Sunny 56 13.3 40 4.4 55 55 N N/A 29.97 1015 10 16.0934 N/A
12:51 pm 12:51 Sunny 57 13.9 37 2.8 47 47 N N/A 29.94 1014 10 16.0934 N/A
1:51 pm 13:51 Sunny 60 15.6 38 3.3 44 44 VRB 5 7 29.92 1013 10 16.0934 N/A
2:51 pm 14:51 Sunny 61 16.1 33 0.6 35 35 WNW 13 20 29.92 1013 10 16.0934 N/A
3:51 pm 15:51 Sunny 61 16.1 27 -2.8 27 27 NW 16 26 29.93 1013 10 16.0934 N/A
4:51 pm 16:51 Sunny 58 14.4 22 -5.6 25 25 NW 16 26 29.95 1014 10 16.0934 N/A
5:51 pm 17:51 Clear 53 11.7 22 -5.6 30 30 NNW 15 24 29.98 1015 10 16.0934 N/A
6:51 pm 18:51 Clear 49 9.4 21 -6.1 33 33 NW 10 17 30.01 1016 10 16.0934 N/A
7:51 pm 19:51 Clear 49 9.4 20 -6.7 32 32 NNW 16 26 30.01 1016 10 16.0934 N/A
8:51 pm 20:51 Clear 44 6.7 19 -7.2 37 37 NW 7 11 30.04 1017 10 16.0934 N/A
9:51 pm 21:51 Clear 41 5 17 -8.3 38 38 WNW 8 13 30.04 1017 10 16.0934 N/A
10:51 pm 22:51 Clear 40 4.4 22 -5.6 49 49 W 9 15 30.04 1017 10 16.0934 N/A
11:51 pm 23:51 Clear 38 3.3 23 -5 55 55 WNW 5 7 30.05 1018 10 16.0934 N/A

Powered by AerisWeather